Theta_e
347 355 368 365 366 366 366 366 365 365 365 365 367 367 367 366 367 368 367 367 368 367 368 367 367 363 364 363 360 362 363 363 365 362 361 360 360 364 365 366 365 356 362
347 354 368 366 367 366 366 366 366 365 365 365 365 366 366 365 365 365 365 365 366 366 365 364 364 364 365 365 362 361 365 364 366 362 361 360 364 362 364 365 364 359 362
345 355 362 367 367 367 366 366 365 365 364 363 364 364 364 363 362 361 362 362 362 362 365 363 362 362 363 362 364 362 362 367 368 364 365 352 359 363 365 359 359 358 358
347 350 358 368 367 368 367 367 366 363 363 363 363 363 363 362 361 361 361 361 360 361 360 363 363 362 360 361 361 361 360 360 363 364 358 349 355 363 364 364 363 362 361
350 352 359 369 368 367 368 367 368 366 364 364 363 362 361 361 360 359 359 359 359 358 359 359 362 362 361 359 359 359 358 357 358 357 356 346 346 356 358 357 357 357 361
352 358 365 369 370 368 368 368 367 366 364 364 363 362 361 359 357 357 358 359 360 359 358 359 361 362 363 360 359 359 359 358 358 357 350 353 345 357 358 362 363 361 357
356 358 361 369 368 368 368 366 366 365 363 362 361 361 360 358 359 359 356 358 358 359 359 359 359 359 360 360 361 361 361 360 357 357 349 350 354 363 363 363 362 359 356
353 354 359 365 367 367 367 365 365 362 361 361 361 360 359 358 358 356 357 356 358 359 359 358 359 358 360 360 362 362 362 358 356 355 348 351 361 366 362 362 361 361 358
353 355 356 357 362 365 364 363 362 361 359 360 359 358 357 357 358 357 356 358 358 358 358 359 358 358 359 361 360 361 360 361 354 353 353 354 365 366 364 362 360 361 360
354 353 355 354 357 358 359 360 360 359 360 360 359 360 360 358 359 359 358 359 360 359 357 358 358 357 358 359 360 360 359 359 354 353 354 355 364 366 363 362 362 361 360
352 350 353 351 357 361 357 357 360 359 355 352 351 350 356 355 346 345 352 358 360 360 359 357 359 358 358 358 359 360 357 353 351 351 352 357 361 363 360 359 361 361 360
345 348 352 351 353 355 355 357 355 348 343 344 347 347 347 349 346 341 349 358 360 359 358 359 360 358 356 352 353 356 353 353 351 352 349 359 362 362 360 360 361 362 361
345 347 348 353 359 354 354 348 348 346 343 342 344 343 346 349 343 342 343 355 355 357 353 355 357 355 353 352 345 351 349 350 350 350 352 361 363 361 359 358 360 362 361
345 348 350 353 355 354 355 347 346 343 341 339 342 344 349 351 355 349 350 352 351 359 352 358 352 352 348 351 350 350 348 350 350 352 351 361 361 361 358 357 358 360 361
344 347 346 354 355 357 356 343 342 345 340 340 341 345 348 351 356 351 359 355 357 352 353 356 353 353 349 350 350 348 349 346 348 350 351 362 361 361 359 357 359 360 359
347 346 348 353 359 358 351 349 344 348 351 347 348 354 355 355 356 360 352 356 359 350 354 358 355 356 355 351 350 351 351 352 350 350 354 356 362 361 362 363 363 363 361
348 350 352 351 355 360 357 356 353 350 351 354 352 356 353 358 353 357 357 349 357 359 357 355 355 357 348 353 354 349 350 350 349 353 354 354 359 365 365 366 366 366 366
349 351 354 352 354 356 357 357 354 353 356 355 359 355 355 356 360 363 355 351 355 357 357 355 351 353 351 353 353 354 352 352 351 356 354 352 354 354 363 364 364 364 367
353 351 352 353 353 355 361 358 353 351 353 356 357 356 361 358 359 363 350 352 356 359 358 354 354 356 353 348 348 351 349 352 349 350 352 354 351 353 354 361 362 364 366
353 356 358 355 354 354 359 360 354 353 353 357 356 357 357 356 358 360 352 352 359 355 356 356 355 358 356 356 351 349 348 351 349 354 353 353 351 355 358 357 359 361 365
353 355 358 360 363 361 359 357 354 355 356 357 357 356 356 361 362 362 359 355 358 361 358 359 357 356 352 355 351 346 343 340 342 346 353 355 353 350 353 358 356 357 360
353 357 360 363 365 364 361 359 360 358 350 350 357 358 362 364 363 360 361 356 359 359 358 358 358 358 350 347 342 346 331 328 338 343 347 352 353 352 354 356 359 359 356
353 356 361 365 366 365 367 364 363 363 350 355 351 357 360 361 360 358 361 360 360 361 358 357 357 355 348 345 342 345 336 328 329 336 340 349 351 353 352 353 356 358 360
354 357 362 365 367 366 369 366 366 360 352 358 354 357 361 355 355 361 355 354 361 361 360 358 357 357 355 345 349 348 351 343 335 335 343 343 349 351 351 355 356 357 360
353 355 361 366 368 370 367 368 364 361 358 361 359 360 360 361 361 361 359 357 362 360 360 359 357 356 354 350 346 345 340 337 343 339 331 330 336 352 353 353 352 354 356
353 355 358 366 368 369 370 368 365 359 361 362 350 353 358 359 360 363 360 361 360 360 363 360 363 361 357 350 346 340 332 337 338 329 333 330 333 339 349 353 352 353 355
Wind_Speed
16 16 15 16 17 16 16 16 15 14 13 13 14 15 15 15 13 13 13 13 13 12 13 12 11 12 12 13 13 14 15 15 16 17 16 15 13 10 11 16 18 15 15
21 18 16 16 18 16 15 15 14 13 12 13 12 13 14 13 12 12 12 12 12 13 13 12 11 10 11 11 13 12 12 13 14 17 17 16 15 17 15 18 17 13 15
21 19 17 16 18 16 15 14 13 13 12 12 12 12 12 12 11 11 11 11 10 10 10 11 11 10 11 10 12 11 9 10 13 17 20 10 9 15 15 18 15 14 14
21 18 18 16 17 16 15 14 14 13 12 12 11 10 10 9 9 8 9 9 8 7 7 7 9 10 10 10 10 9 7 7 8 10 4 12 11 12 14 14 13 13 13
19 18 18 17 17 16 15 14 14 13 12 11 10 9 8 7 7 6 6 5 6 6 5 6 6 9 9 9 8 7 5 5 7 7 7 9 8 10 12 12 12 10 12
21 20 17 16 16 15 15 14 12 13 11 11 10 8 7 5 4 3 3 3 4 5 4 5 6 7 9 9 8 7 6 7 6 8 8 9 10 12 11 11 13 12 11
23 19 17 16 16 15 14 13 13 12 11 9 8 7 5 3 2 2 1 2 2 4 6 6 5 4 6 9 10 9 8 7 7 7 4 12 12 13 10 11 11 10 9
21 20 16 16 16 14 14 13 12 11 9 8 7 6 4 2 1 1 3 3 3 5 5 6 6 6 7 8 10 9 9 9 9 4 7 12 16 15 12 11 10 10 8
12 18 15 15 14 15 14 13 12 10 8 7 7 5 4 3 4 3 5 6 5 5 5 6 6 6 7 8 9 10 9 11 8 5 7 9 16 17 13 11 10 9 8
18 17 13 14 13 10 10 13 12 11 10 11 9 8 7 5 7 10 6 7 9 8 6 6 6 7 7 8 10 10 10 11 7 7 7 6 17 16 14 11 10 9 7
11 15 14 13 13 10 7 8 11 12 12 11 8 8 5 3 7 10 15 10 10 8 9 8 7 8 8 9 8 9 8 4 5 4 5 19 15 17 14 11 10 9 8
15 10 11 12 11 11 6 7 4 3 4 5 3 3 5 7 7 10 16 17 12 9 9 9 8 9 7 4 4 7 4 3 1 4 2 13 15 18 14 11 10 10 10
17 12 9 11 12 12 8 4 2 2 2 2 3 2 6 2 9 7 10 6 5 9 5 7 7 6 6 4 5 4 5 1 1 3 8 16 16 18 16 12 11 10 11
17 15 15 15 11 11 7 4 3 2 2 2 2 5 5 5 5 7 13 7 2 3 4 4 3 3 3 6 9 13 7 6 2 4 6 14 15 15 15 13 12 12 11
16 16 12 13 11 10 8 5 3 4 4 4 4 5 6 6 3 2 2 5 4 4 4 5 7 6 9 9 14 13 8 9 8 7 5 18 18 17 16 15 15 14 13
13 8 10 13 11 11 6 8 5 4 5 5 5 6 8 6 5 3 2 2 2 5 6 5 3 4 3 6 6 6 6 6 9 14 10 11 20 20 20 19 17 16 15
14 15 12 12 12 10 8 7 5 5 5 5 6 6 6 6 6 5 2 3 4 5 7 4 6 3 5 6 3 5 5 6 6 6 6 9 11 17 18 18 16 16 16
14 15 14 12 13 12 10 8 6 6 5 6 5 6 9 9 5 4 1 2 4 5 4 4 5 5 4 2 3 3 4 5 7 5 5 6 5 7 10 13 15 15 16
16 12 17 14 14 12 12 9 9 10 6 5 5 4 5 6 5 5 3 3 5 5 4 4 2 2 1 2 3 5 8 5 5 7 8 5 7 8 9 16 17 16 18
15 12 12 12 13 14 10 8 8 7 6 4 6 6 6 7 8 8 4 5 6 4 4 0 3 2 2 3 3 7 13 6 4 6 6 8 9 8 9 10 9 9 18
16 13 11 10 12 9 8 6 5 5 6 5 6 7 5 6 5 6 6 6 6 3 4 3 5 3 2 4 3 1 3 11 11 10 5 4 5 5 7 10 8 8 10
14 12 11 8 10 7 6 6 3 2 8 7 8 6 7 5 4 5 6 7 6 4 5 5 3 2 1 4 2 3 3 4 13 10 11 6 7 8 6 12 12 8 9
15 13 13 10 10 9 8 5 5 5 5 5 4 4 5 2 7 7 5 7 5 5 4 4 4 6 3 2 5 2 2 3 7 6 13 8 6 3 5 6 7 7 8
16 14 14 12 11 10 8 6 5 3 4 5 7 7 4 11 13 10 9 8 7 4 5 5 6 4 4 4 3 4 3 4 9 3 4 5 4 6 6 4 6 6 6
14 14 14 13 11 9 10 8 4 7 7 3 4 7 8 10 13 12 11 11 7 5 5 6 3 4 4 3 3 3 2 3 5 8 4 6 6 3 5 5 6 8 9
14 14 13 13 11 10 10 9 7 4 5 1 6 7 7 7 8 9 10 8 7 6 5 5 6 7 6 5 3 3 3 2 4 5 3 7 0 8 9 5 5 7 7
Wind_Direction
136 138 137 135 127 123 125 122 121 114 108 102 100 97 94 93 92 92 89 91 90 87 81 90 93 90 99 98 95 97 95 97 99 104 104 98 89 89 123 121 110 103 102
132 140 138 136 127 125 124 126 123 120 115 111 104 98 96 96 95 91 91 89 90 95 95 92 91 101 111 114 110 112 110 123 123 116 105 98 83 75 79 86 88 96 97
135 132 141 136 133 129 128 130 128 125 122 118 111 106 101 98 96 96 96 92 92 95 99 111 113 112 115 115 114 121 127 132 139 140 135 113 94 94 94 98 109 110 106
132 147 138 136 136 132 131 132 133 130 125 120 118 113 106 104 101 99 97 100 103 103 107 111 126 126 128 130 130 130 153 159 161 175 206 131 110 106 102 107 109 107 102
138 141 128 135 137 135 133 134 134 131 127 126 124 117 112 108 107 105 106 120 129 131 134 139 139 139 142 141 141 145 184 204 208 225 241 121 122 122 120 123 120 123 107
135 115 132 135 137 138 137 133 125 124 126 124 123 120 116 113 115 116 146 167 158 158 175 173 172 166 158 153 154 166 198 234 253 247 135 125 114 132 132 115 107 108 107
111 125 132 136 138 138 137 134 131 131 129 128 128 121 118 106 79 66 308 219 196 183 174 182 192 172 175 173 168 180 211 250 270 283 141 111 126 137 131 124 123 119 122
126 129 129 128 132 136 138 133 133 131 129 121 104 94 85 54 36 236 244 242 221 207 187 177 183 182 179 181 187 190 215 246 277 284 180 131 144 144 145 137 139 140 134
97 122 134 137 137 137 134 133 130 130 123 113 98 90 56 342 302 274 255 222 214 226 208 175 180 187 190 186 195 202 232 263 279 259 125 138 151 143 147 150 153 153 152
131 134 154 134 152 144 141 136 131 120 92 71 53 42 16 303 310 327 270 237 213 207 208 196 184 194 195 193 197 208 220 256 273 282 56 123 149 146 149 159 162 164 169
137 146 151 160 151 135 127 146 136 128 100 79 51 22 315 45 45 12 313 265 229 208 208 201 192 202 201 208 207 205 216 236 265 320 132 199 158 147 156 168 169 176 185
151 140 139 140 140 126 141 137 157 205 142 123 76 348 298 84 69 30 299 245 226 213 216 210 199 211 214 213 198 220 228 221 236 331 103 176 165 151 163 176 182 186 196
145 153 179 110 131 143 158 148 141 77 10 78 124 288 272 216 156 155 256 222 225 210 214 201 197 221 206 128 275 289 243 100 335 76 218 184 182 157 169 180 191 201 208
144 160 154 139 150 164 172 163 152 129 215 198 229 253 257 243 220 202 202 188 196 244 195 237 225 174 109 195 170 234 233 30 82 235 221 203 185 172 176 188 198 205 214
151 158 151 150 148 161 177 139 190 180 203 214 205 231 247 268 300 231 205 153 209 41 253 229 203 197 220 192 195 203 200 170 181 215 218 195 193 175 184 192 197 205 214
138 116 173 146 156 165 170 155 189 202 180 204 214 211 213 235 263 165 199 262 197 188 242 243 229 217 240 233 205 166 193 214 199 179 203 196 195 180 184 190 196 202 207
165 159 152 169 171 169 155 168 195 192 214 205 216 234 226 236 215 161 158 247 271 201 225 207 237 193 228 251 249 201 194 201 244 197 190 187 200 196 187 194 197 200 200
134 163 169 169 168 177 171 186 193 232 193 210 200 222 232 237 213 143 170 259 277 291 240 261 239 232 224 233 279 279 188 222 206 200 209 248 180 181 210 203 199 205 203
157 158 159 176 176 166 168 182 191 214 212 207 221 220 218 209 206 151 180 260 257 266 270 270 237 221 339 276 281 0 319 220 178 220 210 206 271 154 204 201 199 204 204
155 178 151 164 169 166 178 183 204 199 209 193 200 219 217 225 186 148 189 231 247 235 251 159 241 313 298 317 66 107 277 316 233 238 223 195 223 221 161 169 192 201 203
167 160 163 185 159 173 175 203 190 173 197 224 230 234 180 228 178 171 184 222 231 247 244 227 211 190 341 343 7 218 24 344 344 326 240 256 229 218 175 163 178 199 200
159 157 162 181 158 177 197 211 200 144 98 278 238 212 219 173 221 213 217 215 196 225 241 241 286 98 91 54 58 306 45 308 331 297 305 224 237 189 222 170 191 189 171
156 165 166 177 170 183 231 212 184 196 140 183 268 251 186 348 234 235 267 240 195 196 219 249 227 227 168 151 152 175 155 148 271 282 250 238 218 220 219 197 178 182 162
154 168 164 173 174 187 208 246 217 188 216 205 196 206 184 178 223 192 202 247 239 213 205 214 228 220 146 194 182 216 258 167 219 338 27 348 259 201 219 226 171 190 186
158 163 164 169 181 193 189 232 211 217 225 211 260 200 196 185 198 202 194 209 226 210 235 222 244 155 172 178 199 168 262 263 19 331 336 327 342 289 217 194 187 189 198
156 160 164 164 177 189 180 196 245 272 279 176 227 240 204 206 195 200 200 196 200 229 241 236 226 180 190 202 186 178 182 148 90 169 249 264 180 309 285 192 225 187 181